Lynchburg, VA

11:28 PM EDT on October 20, 2019 (GMT -0400)
Lynchburg Regional-Glenn

Weather History for KLYH - August, 2019

Change the Weather History Date:

Wednesday, August 7, 2019

  Actual Average Record
Temperature  
Mean Temperature 77 °F 75 °F  
Max Temperature 88 °F 86 °F 105 °F (1918)
Min Temperature 65 °F 64 °F 46 °F (2004)
Degree Days  
Heating Degree Days 0 0  
Month to date heating degree days 0 0  
Since 1 June heating degree days 2 15  
Since 1 July heating degree days 0 1  
Cooling Degree Days 12 10  
Month to date cooling degree days 81 70  
Year to date cooling degree days 936 684  
Since 1 June cooling degree days 724 602  
Growing Degree Days 26 (Base 50)    
Moisture  
Dew Point 67 °F    
Average Humidity 73    
Maximum Humidity 100    
Minimum Humidity 46    
Precipitation  
Precipitation 0.00 in 0.11 in 1.73 in (1936)
Month to date precipitation 2.12 0.81  
Year to date precipitation 26.46 25.48  
Snow  
Snow 0.00 in - - ()
Month to date snowfall 0.0  
Since 1 June snowfall 0.0  
Since 1 July snowfall 0.0  
Snow Depth 0.00 in    
Sea Level Pressure  
Sea Level Pressure 29.83 in    
Wind  
Wind Speed 4 mph (SW)    
Max Wind Speed 12 mph    
Max Gust Speed 16 mph    
Visibility 10 miles    
Events Thunderstorm    
T = Trace of Precipitation, MM = Missing Value Source: NWS Daily Summary

Daily Weather History Graph

Daily Weather History Graph

Search for Another Location

Airport or City:

Astronomy

Aug. 07, 2019 Rise Set
Actual Time 6:26 AM EDT 8:18 PM EDT
Civil Twilight 5:57 AM EDT 8:46 PM EDT
Nautical Twilight 5:23 AM EDT 9:21 PM EDT
Astronomical Twilight 4:46 AM EDT 9:57 PM EDT
Moon 1:46 PM EDT (8/7) 12:12 AM EDT (8/7)
Length of Visible Light 14h 49m
Length of Day
13h 52m
Waxing Crescent, 49% of the Moon is Illuminated
Aug 7
Waxing Crescent
Aug 7
First Quarter
Aug 15
Full
Aug 23
Last Quarter
Aug 30
New

Hourly Weather History & Observations

Time (EDT) Temp. Heat Index Dew Point Humidity Pressure Visibility Wind Dir Wind Speed Gust Speed Precip Events Conditions
12:54 AM 72.0 °F - 68.0 °F 87% 29.86 in 10.0 mi Calm Calm - N/A   Clear
1:54 AM 70.0 °F - 68.0 °F 93% 29.86 in 10.0 mi SSW 4.6 mph - N/A   Clear
2:54 AM 70.0 °F - 68.0 °F 93% 29.85 in 10.0 mi South 3.5 mph - N/A   Clear
3:54 AM 71.1 °F - 68.0 °F 90% 29.83 in 10.0 mi SW 3.5 mph - N/A   Clear
4:54 AM 68.0 °F - 66.9 °F 96% 29.84 in 8.0 mi Calm Calm - N/A   Clear
5:54 AM 66.0 °F - 66.0 °F 100% 29.84 in 4.0 mi Calm Calm - N/A   Clear
6:54 AM 68.0 °F - 66.9 °F 96% 29.86 in 4.0 mi Calm Calm - N/A   Clear
7:54 AM 72.0 °F - 70.0 °F 93% 29.87 in 10.0 mi SSW 4.6 mph - N/A   Clear
8:54 AM 75.9 °F - 69.1 °F 79% 29.87 in 10.0 mi SSW 4.6 mph - N/A   Clear
9:54 AM 80.1 °F 82.7 °F 68.0 °F 67% 29.86 in 10.0 mi SSW 6.9 mph - N/A   Clear
10:54 AM 84.0 °F 87.0 °F 68.0 °F 58% 29.85 in 10.0 mi Variable 5.8 mph - N/A   Clear
11:54 AM 82.9 °F 85.4 °F 66.9 °F 58% 29.86 in 10.0 mi Variable 5.8 mph - N/A   Clear
12:54 PM 84.0 °F 87.0 °F 68.0 °F 58% 29.85 in 10.0 mi Variable 6.9 mph - N/A   Clear
1:54 PM 84.9 °F 86.6 °F 64.9 °F 51% 29.83 in 10.0 mi Variable 6.9 mph - N/A   Clear
2:54 PM 86.0 °F 87.6 °F 64.9 °F 49% 29.81 in 10.0 mi Variable 3.5 mph - N/A   Clear
3:54 PM 86.0 °F 87.6 °F 64.9 °F 49% 29.79 in 10.0 mi SW 6.9 mph - N/A   Clear
4:54 PM 87.1 °F 88.9 °F 64.9 °F 48% 29.77 in 10.0 mi SW 5.8 mph - N/A   Clear
5:54 PM 87.1 °F 89.2 °F 66.0 °F 49% 29.76 in 10.0 mi SSW 5.8 mph - N/A   Clear
6:54 PM 84.0 °F 86.5 °F 66.9 °F 56% 29.78 in 10.0 mi SSW 3.5 mph - N/A   Mostly Cloudy
7:33 PM 80.6 °F 83.9 °F 69.8 °F 70% 29.82 in 10.0 mi SSW 3.5 mph - N/A Thunderstorm Thunderstorm
7:54 PM 80.6 °F 83.9 °F 69.8 °F 70% 29.79 in 10.0 mi SW 3.5 mph - N/A Thunderstorm Thunderstorm
8:01 PM 82.0 °F 84.5 °F 66.9 °F 60% 29.82 in 10.0 mi SW 4.6 mph - N/A   Scattered Clouds
8:18 PM 78.1 °F - 69.1 °F 74% 29.82 in 10.0 mi Calm Calm - N/A Thunderstorm Partly Cloudy
8:33 PM 75.2 °F - 68.0 °F 78% 29.83 in 10.0 mi Calm Calm - N/A   Clear
8:54 PM 75.0 °F - 68.0 °F 79% 29.80 in 10.0 mi Calm Calm - N/A   Clear
9:54 PM 71.1 °F - 66.0 °F 84% 29.82 in 10.0 mi Calm Calm - N/A   Clear
10:54 PM 73.9 °F - 66.0 °F 76% 29.84 in 10.0 mi West 4.6 mph - N/A   Clear
11:54 PM 70.0 °F - 66.0 °F 87% 29.82 in 10.0 mi Calm Calm - N/A   Clear